Temp
39 38 37 37 37 37 37 38 40 40 41 42 43 43 45 44 44 47 46 45 48 53
38 37 36 36 37 37 38 39 40 40 39 40 40 41 42 43 42 45 47 47 46 47
36 36 36 36 35 36 37 37 38 38 38 38 39 39 40 41 41 39 40 46 47 47
36 36 36 35 35 35 35 35 35 36 36 35 37 38 38 40 40 38 39 40 42 46
36 35 34 32 33 34 33 34 33 34 34 34 35 37 37 37 38 37 38 37 41 43
32 31 30 30 31 32 32 32 33 34 33 33 33 34 35 37 37 37 39 39 39 40
30 30 30 30 31 31 32 32 32 33 33 33 33 33 34 34 35 35 36 36 38 38
29 30 29 30 30 31 32 32 32 32 33 33 32 34 34 34 35 36 36 36 36 37
28 29 29 29 29 31 32 32 32 31 32 33 33 35 37 36 35 34 35 35 36 36
29 28 29 29 29 30 31 32 31 31 32 32 33 38 37 37 34 34 35 35 35 34
28 28 29 28 29 31 31 31 30 31 32 31 33 36 36 34 32 32 32 33 33 33
27 27 28 28 30 31 31 31 30 31 31 31 32 34 34 33 31 31 30 31 32 33
26 26 25 29 30 31 31 31 31 30 31 32 32 34 33 32 30 29 29 30 32 32
27 27 28 30 31 31 31 30 30 29 30 30 31 32 33 33 31 30 29 29 30 31
MSLP
1012.40 1011.83 1011.34 1010.84 1010.27 1009.61 1008.99 1008.36 1007.97 1007.55 1007.15 1006.68 1006.35 1006.14 1005.88 1005.64 1005.29 1004.71 1004.25 1004.10 1003.64 1003.33
1011.86 1011.39 1010.82 1010.21 1009.59 1008.84 1008.16 1007.51 1007.03 1006.59 1006.08 1005.58 1005.28 1005.12 1005.01 1004.50 1004.26 1003.93 1003.35 1003.12 1003.04 1002.67
1011.50 1010.98 1010.36 1009.65 1008.83 1008.21 1007.53 1006.89 1006.23 1005.53 1005.09 1004.63 1004.23 1003.91 1003.73 1003.34 1003.24 1003.24 1002.68 1002.20 1002.10 1001.86
1010.94 1010.37 1009.72 1009.10 1008.35 1007.61 1006.86 1006.23 1005.46 1004.71 1004.00 1003.52 1002.88 1002.44 1002.42 1002.23 1002.18 1002.12 1001.99 1001.91 1001.61 1001.03
1010.67 1010.08 1009.31 1008.68 1007.94 1007.06 1006.15 1005.40 1004.71 1003.80 1002.94 1002.32 1001.82 1001.39 1001.30 1001.21 1001.24 1001.33 1001.13 1000.99 1000.96 1000.84
1010.57 1009.87 1009.04 1008.19 1007.34 1006.43 1005.55 1004.54 1003.69 1002.89 1001.84 1001.12 1000.71 1000.37 1000.22 1000.18 1000.24 1000.35 1000.25 1000.39 1000.55 1000.49
1010.56 1009.63 1008.79 1007.99 1007.07 1006.20 1005.25 1004.10 1003.06 1002.07 1000.95 1000.12 999.72 999.43 999.42 999.52 999.64 999.58 999.76 999.85 999.89 999.95
1010.43 1009.54 1008.70 1007.83 1007.04 1006.01 1004.93 1003.92 1002.90 1001.63 1000.34 999.42 998.81 998.52 998.51 998.70 998.91 999.09 999.21 999.37 999.38 999.38
1010.30 1009.43 1008.64 1007.87 1006.99 1005.96 1004.91 1003.97 1002.98 1001.72 1000.49 999.35 998.22 997.61 997.70 998.00 998.32 998.64 998.86 998.88 998.79 998.73
1010.30 1009.47 1008.71 1007.95 1007.10 1006.18 1005.20 1004.19 1003.17 1002.01 1000.90 999.77 998.39 996.80 996.86 997.33 997.90 998.12 998.19 998.23 998.34 998.47
1010.35 1009.73 1008.97 1008.19 1007.40 1006.46 1005.56 1004.65 1003.76 1002.70 1001.62 1000.59 999.54 998.31 997.61 997.81 998.16 998.31 998.19 998.19 998.36 998.44
1010.64 1010.16 1009.31 1008.56 1007.78 1006.91 1006.04 1005.28 1004.57 1003.51 1002.48 1001.50 1000.66 999.82 999.26 999.04 999.06 998.99 999.01 999.00 999.01 999.06
1010.76 1010.26 1009.71 1009.07 1008.36 1007.65 1006.82 1006.11 1005.45 1004.55 1003.56 1002.69 1001.87 1001.04 1000.55 1000.20 1000.16 1000.03 999.98 999.98 999.98 1000.10
1010.83 1010.21 1009.82 1009.14 1008.59 1008.03 1007.47 1006.77 1006.14 1005.51 1004.82 1003.98 1003.28 1002.65 1001.98 1001.48 1001.16 1001.10 1000.99 1001.11 1001.29 1001.50
Wind_Speed
13 10 10 12 12 10 11 11 13 14 15 17 16 15 16 12 13 16 15 18 12 15
13 14 13 15 13 11 14 12 14 15 17 17 17 17 16 13 14 16 15 17 16 14
14 14 15 14 14 14 15 16 16 16 17 16 18 17 16 16 14 15 10 12 18 16
14 14 14 14 15 16 15 16 18 17 16 17 19 16 15 17 16 16 15 14 13 14
14 15 14 14 15 15 15 15 16 18 16 15 17 15 16 17 13 17 16 9 13 16
14 13 13 14 14 14 14 14 14 16 15 14 15 15 15 15 13 13 12 11 13 10
14 14 13 14 14 15 14 14 14 14 13 12 13 13 13 13 12 11 9 7 9 8
12 12 11 12 13 14 12 12 13 13 12 11 9 9 12 12 12 12 11 11 9 9
11 10 11 12 13 13 13 13 13 12 12 11 6 14 19 13 9 9 12 9 9 8
10 10 11 12 12 12 13 12 12 13 12 12 11 11 17 19 6 6 8 8 6 3
9 10 10 10 11 12 11 12 12 13 12 10 10 18 18 16 8 7 7 7 6 6
9 9 10 11 12 11 11 11 11 12 12 11 11 19 18 13 9 11 11 10 9 10
7 6 7 9 10 10 10 10 9 12 13 14 13 20 20 14 8 11 9 11 13 19
6 6 5 6 6 8 9 10 11 12 13 15 16 17 23 19 10 8 9 9 9 9
Wind_Direction
301 297 290 283 284 282 279 277 278 271 260 258 251 252 256 250 255 251 250 249 255 239
309 305 297 291 286 284 286 278 275 267 264 254 250 246 249 247 249 247 246 244 245 251
309 303 301 298 292 289 288 285 281 275 273 266 256 242 242 245 245 252 263 244 237 243
314 308 305 302 301 298 293 290 286 278 270 262 262 235 237 241 241 244 247 246 259 253
319 315 314 309 303 301 296 291 284 282 273 263 261 242 235 239 241 242 236 251 241 245
323 318 315 312 312 307 303 300 297 292 281 265 255 244 235 236 232 240 242 225 235 245
318 322 322 318 318 318 313 312 312 305 297 273 251 234 229 233 234 225 226 234 225 230
313 321 322 325 323 322 323 323 317 318 322 301 251 233 225 222 227 235 233 229 234 234
319 327 333 331 327 329 336 337 329 334 337 329 304 237 224 213 220 229 240 243 250 250
329 335 341 336 334 346 341 338 341 343 342 341 335 349 221 221 211 226 230 231 222 192
340 339 339 339 343 348 344 350 351 349 352 358 7 43 69 85 85 81 74 78 85 97
337 337 341 342 350 350 353 357 357 360 4 15 28 46 60 69 72 74 69 68 71 87
322 332 338 343 353 350 353 360 5 11 14 22 34 45 57 60 67 68 65 63 65 71
322 327 337 344 2 2 6 9 17 21 20 19 28 38 51 55 58 64 71 64 65 70